Wind_Speed
14 16 16 17 17 18 18 19 20 22 22 26 27 29 31 33 34 35 35 37 39 41 44 47 50 54 57 59 62 67 71 76 80 86 89 90 92 95 94 98 94 77 59 47
19 20 20 20 21 24 23 25 25 27 27 28 30 32 35 38 40 40 41 43 44 45 47 49 52 55 58 62 66 69 75 80 85 88 89 91 94 94 96 91 72 56 44 35
24 24 26 24 26 29 29 28 31 32 32 32 33 37 40 41 42 43 44 46 48 48 49 51 54 57 61 65 69 74 80 83 86 86 88 90 92 93 88 68 53 42 39 38
29 30 32 28 30 33 33 32 34 36 36 36 38 41 43 44 45 46 47 48 50 50 51 52 55 60 64 68 73 79 84 85 85 87 88 90 91 87 72 55 44 37 37 38
35 34 37 33 31 36 38 37 36 39 39 39 41 45 47 50 50 51 50 50 53 53 52 54 58 63 68 73 79 83 84 83 86 88 89 88 86 74 58 48 40 36 37 37
38 40 42 37 36 40 42 40 41 42 42 43 44 47 48 49 51 51 51 54 56 53 54 58 63 68 73 78 81 82 81 84 87 90 88 86 77 62 49 42 37 34 36 37
41 44 45 40 42 43 44 44 42 43 45 44 44 48 50 51 51 52 54 57 55 55 58 62 68 73 76 81 83 81 83 86 90 88 85 77 66 53 43 38 34 34 37 37
42 44 47 43 45 47 45 44 45 46 47 45 48 52 53 52 52 53 56 57 56 59 63 69 72 76 80 83 81 82 86 89 86 83 77 68 58 45 38 35 33 33 36 36
42 41 42 44 46 46 46 47 48 48 46 48 53 53 53 53 53 55 59 59 61 64 69 73 77 80 83 80 80 84 88 85 81 76 67 60 51 39 36 34 33 34 36 37
41 38 40 45 45 45 47 48 48 48 49 52 53 55 55 55 55 58 60 61 65 69 72 76 79 81 80 79 85 86 83 79 74 67 60 53 43 36 35 33 32 33 35 36
43 40 44 43 43 44 46 47 48 50 52 53 55 56 56 55 57 59 62 65 68 71 75 78 81 78 79 85 86 83 78 74 67 60 53 46 38 35 33 31 30 31 33 33
40 41 44 43 43 44 46 48 50 52 53 55 55 57 56 57 59 63 67 70 73 75 77 79 76 78 86 86 83 79 73 66 60 53 46 39 35 32 30 28 28 30 31 31
41 42 42 43 44 45 48 50 51 52 53 55 56 59 58 59 62 68 71 72 73 76 80 75 78 85 85 82 78 73 66 59 53 47 41 35 31 28 28 29 28 28 29 29
40 42 43 43 46 48 48 49 51 52 53 55 57 57 58 61 64 70 73 73 76 79 74 78 84 83 83 79 72 66 59 53 47 42 37 33 31 30 29 28 29 28 28 29
43 46 46 48 48 47 46 47 49 50 52 55 55 57 59 62 69 72 72 74 77 74 79 82 82 81 78 71 64 58 52 47 42 38 34 32 31 30 28 26 25 25 28 29
46 46 46 46 47 48 49 51 50 55 57 57 58 60 63 69 73 74 73 76 74 79 79 80 80 75 66 61 58 52 47 42 39 35 33 31 30 28 25 22 23 26 28 29
45 44 44 45 47 49 51 52 47 56 58 56 61 67 70 72 75 75 73 74 77 77 78 76 70 63 60 58 54 49 42 38 35 31 30 28 27 24 22 23 25 28 29 28
43 47 49 49 49 50 53 56 57 56 57 60 66 69 71 74 73 70 73 74 75 75 74 68 63 60 57 54 52 45 39 35 31 28 28 26 25 23 24 26 28 30 31 29
48 50 51 49 50 54 53 53 59 59 59 65 71 72 69 67 69 70 71 73 73 70 66 62 62 58 55 51 46 41 36 31 28 26 26 26 26 26 27 28 29 30 30 30
57 59 57 54 51 49 50 55 58 63 68 68 68 65 67 68 69 69 70 69 69 65 61 61 61 54 50 45 40 35 31 28 26 26 26 28 29 30 30 31 31 32 32 31
56 54 55 56 54 52 56 62 66 62 67 61 65 66 66 67 69 69 66 65 63 62 60 62 56 49 44 39 36 32 28 26 25 24 25 27 29 30 32 31 30 30 30 30
54 53 50 49 52 56 60 62 63 62 66 66 65 65 66 66 65 64 63 63 61 60 60 59 49 43 38 34 33 29 27 26 27 28 29 31 32 33 33 34 33 32 31 31
47 48 50 52 55 57 58 61 64 64 62 62 64 65 64 62 61 60 59 61 60 58 60 56 45 39 35 32 31 30 30 31 32 34 36 36 37 37 37 36 35 34 33 33
50 56 59 58 57 59 60 58 58 60 62 63 62 61 61 59 58 62 63 61 57 57 58 50 42 37 34 32 32 32 33 34 36 38 39 39 39 39 39 39 39 36 33 33
57 56 53 52 52 54 56 59 59 59 59 58 59 59 59 61 62 61 58 56 55 55 55 47 40 37 35 33 34 35 35 37 38 39 40 41 40 40 40 39 38 37 35 32
47 50 52 55 57 59 60 59 57 57 59 58 58 59 61 60 60 57 54 53 52 53 51 46 40 38 35 34 34 36 37 38 39 40 41 41 41 39 37 37 35 35 36 36
52 55 56 56 58 59 59 59 61 60 59 59 59 59 58 59 58 55 53 52 51 50 48 43 40 39 36 33 34 35 37 38 39 40 41 42 40 38 36 35 34 34 34 36
Wind_Direction
227 239 246 258 268 274 284 300 309 315 318 321 322 322 322 321 319 316 312 310 308 305 302 302 301 302 306 308 310 311 311 312 313 314 312 313 314 315 316 317 317 315 314 312
242 250 257 266 276 283 292 299 305 311 316 319 320 323 323 321 320 316 313 311 311 309 304 302 302 305 307 309 311 312 313 314 314 312 314 316 316 317 318 318 316 315 316 317
250 257 262 267 278 282 289 297 303 307 313 316 317 319 320 318 315 312 310 310 312 310 306 304 307 308 310 311 312 313 315 314 313 316 317 316 316 318 319 317 315 313 317 317
258 260 265 272 278 284 289 294 298 302 307 313 316 319 316 314 311 310 310 311 312 307 305 308 309 310 311 311 313 315 316 315 316 318 317 317 318 321 319 316 314 308 308 312
264 268 273 275 281 283 289 294 297 300 305 309 312 316 316 315 312 310 309 309 309 308 309 310 309 310 312 314 316 317 316 315 318 317 318 318 321 319 317 314 312 309 312 313
267 269 272 276 280 284 287 295 295 300 304 308 310 313 312 309 307 307 304 309 311 309 309 308 310 313 315 316 317 316 316 318 318 318 318 321 321 318 314 312 311 308 315 315
263 268 272 277 281 285 289 290 296 298 302 306 307 310 309 307 306 303 308 312 309 307 308 311 313 314 316 319 318 318 318 318 318 318 320 323 319 316 311 311 311 310 314 313
269 271 275 279 282 284 287 291 293 297 301 303 307 308 306 305 303 306 309 308 307 308 311 313 315 317 319 320 318 318 318 318 318 321 322 321 319 314 310 310 309 313 316 313
273 276 280 282 281 285 288 291 293 296 298 300 303 303 302 302 305 306 308 309 310 311 313 315 317 319 320 318 318 318 318 318 321 322 321 321 319 313 310 310 309 310 313 315
281 282 280 280 282 286 287 289 292 294 296 298 301 303 304 306 306 308 310 311 311 312 314 316 317 318 318 318 318 318 318 320 321 321 321 320 317 312 309 310 309 311 313 315
280 283 279 282 284 285 288 290 291 294 299 302 302 302 303 304 305 308 310 311 313 314 315 316 317 317 317 318 318 317 319 320 321 320 321 318 314 311 309 310 310 311 313 315
282 281 282 286 287 289 291 294 298 299 300 301 300 299 301 303 303 306 310 313 314 314 314 316 317 317 318 317 317 319 319 320 319 320 320 316 313 311 311 312 313 313 311 313
280 282 287 288 290 291 293 294 296 298 298 297 296 298 303 301 304 309 311 312 309 312 315 316 317 317 316 317 319 319 319 319 319 320 317 315 315 315 314 313 312 312 310 314
282 285 287 288 289 291 292 294 296 298 297 296 297 299 300 306 304 303 307 307 310 313 314 315 316 315 316 318 318 318 318 318 318 317 314 311 313 313 312 311 311 312 313 316
287 288 289 290 291 290 292 296 298 298 297 298 301 303 303 300 301 304 304 306 310 312 313 314 314 315 318 318 319 318 317 317 316 314 312 307 309 312 310 310 310 310 312 314
286 289 290 290 290 287 288 295 297 296 299 302 301 299 296 295 296 299 302 308 311 311 312 313 315 317 319 319 318 317 316 315 314 313 313 310 310 310 307 308 310 312 312 312
285 287 293 295 292 289 289 292 291 294 300 296 289 293 294 295 293 299 306 309 310 311 313 315 317 320 319 318 317 316 314 313 311 312 314 312 310 308 305 307 310 312 313 312
283 288 291 292 290 289 290 296 299 299 289 280 287 291 290 290 299 304 308 308 309 312 314 315 319 320 318 317 317 314 311 310 309 308 312 312 309 307 304 303 307 311 311 311
289 292 293 291 289 294 300 297 284 273 272 281 284 286 294 300 305 306 307 308 310 313 314 316 319 319 318 317 316 315 312 310 308 303 305 306 305 305 304 303 307 309 308 309
287 289 293 296 300 290 279 272 273 276 279 284 292 297 303 303 304 305 307 309 312 314 315 318 319 318 316 316 316 315 312 313 311 304 302 303 303 303 303 303 304 305 305 305
293 293 294 296 293 285 278 274 269 275 289 293 299 303 302 302 303 305 308 310 313 315 317 318 316 314 314 316 318 314 309 310 312 312 311 309 308 306 306 306 306 304 303 301
292 291 290 286 275 274 277 279 281 288 295 300 300 299 300 302 304 306 310 312 315 314 315 317 311 311 311 315 317 311 305 306 309 311 312 312 311 310 309 306 302 301 300 299
286 285 284 283 282 281 281 286 293 299 299 298 297 298 301 302 305 308 310 311 312 311 313 315 307 307 306 309 313 306 302 303 304 306 307 308 308 306 305 303 303 299 296 294
278 276 276 279 284 292 299 299 297 296 295 296 298 301 303 305 308 309 309 309 308 307 310 311 303 303 302 300 304 307 306 304 303 304 305 305 305 304 302 299 298 296 291 290
283 294 302 302 299 296 294 294 294 294 297 300 303 304 304 306 306 306 306 305 305 306 309 309 302 301 300 295 297 302 305 305 304 305 306 306 304 302 301 300 295 291 288 289
299 302 302 300 298 296 295 295 297 300 301 302 302 302 304 304 305 306 305 304 305 305 307 307 303 302 300 295 295 298 302 304 304 305 308 309 307 303 300 299 296 292 282 279
306 306 303 300 298 296 297 298 299 300 301 300 302 303 303 304 305 305 306 305 304 305 306 305 304 303 300 296 294 296 299 301 303 307 308 309 309 304 299 298 295 293 288 279
Height
5778 5778 5777 5777 5777 5775 5774 5772 5769 5767 5764 5759 5756 5752 5748 5743 5739 5734 5728 5723 5717 5711 5704 5697 5690 5683 5676 5668 5659 5650 5639 5627 5614 5600 5585 5570 5554 5537 5519 5503 5486 5472 5462 5453
5773 5773 5772 5772 5771 5769 5768 5766 5763 5760 5757 5753 5749 5745 5740 5735 5730 5724 5718 5712 5706 5700 5694 5687 5679 5672 5664 5655 5644 5634 5623 5611 5597 5581 5565 5549 5534 5518 5501 5484 5470 5459 5453 5446
5768 5767 5766 5768 5765 5762 5761 5759 5755 5751 5749 5745 5740 5736 5731 5725 5720 5714 5708 5702 5696 5689 5682 5674 5666 5659 5650 5640 5630 5619 5607 5594 5578 5563 5548 5531 5515 5501 5485 5470 5459 5450 5444 5439
5763 5761 5759 5762 5759 5756 5753 5752 5748 5744 5740 5736 5731 5726 5721 5715 5710 5704 5697 5691 5684 5676 5669 5662 5654 5645 5636 5626 5616 5604 5589 5574 5560 5546 5531 5514 5497 5483 5470 5459 5451 5444 5439 5433
5754 5755 5752 5753 5752 5748 5743 5744 5739 5734 5731 5727 5722 5716 5711 5704 5698 5692 5686 5679 5672 5664 5657 5649 5641 5633 5623 5612 5598 5585 5571 5556 5542 5529 5514 5498 5483 5468 5458 5449 5442 5437 5432 5426
5748 5744 5742 5745 5743 5738 5734 5734 5728 5724 5720 5716 5711 5705 5699 5693 5688 5682 5674 5667 5659 5652 5644 5637 5628 5618 5606 5594 5581 5567 5553 5539 5525 5511 5497 5483 5468 5456 5447 5440 5434 5429 5424 5418
5737 5735 5734 5736 5732 5729 5726 5725 5719 5713 5709 5705 5700 5694 5688 5682 5676 5668 5661 5654 5647 5640 5632 5623 5614 5602 5590 5577 5564 5550 5536 5522 5507 5494 5481 5468 5455 5445 5437 5431 5426 5422 5417 5411
5729 5726 5725 5727 5723 5719 5716 5712 5707 5702 5698 5693 5688 5681 5675 5669 5662 5655 5649 5642 5635 5627 5618 5608 5598 5587 5575 5561 5547 5534 5520 5505 5491 5478 5465 5454 5443 5434 5428 5423 5419 5415 5409 5404
5720 5719 5717 5713 5709 5707 5704 5700 5695 5691 5686 5681 5675 5669 5662 5656 5649 5643 5636 5628 5620 5612 5603 5592 5581 5569 5557 5544 5530 5517 5502 5488 5476 5464 5452 5442 5433 5425 5420 5415 5411 5407 5403 5397
5710 5710 5706 5700 5698 5696 5692 5688 5684 5680 5675 5669 5662 5655 5648 5641 5636 5629 5622 5614 5606 5598 5587 5577 5565 5552 5540 5530 5516 5501 5487 5474 5461 5451 5440 5431 5424 5418 5413 5409 5404 5401 5396 5391
5697 5696 5691 5690 5688 5684 5680 5676 5672 5667 5661 5654 5647 5641 5635 5630 5623 5617 5609 5601 5592 5583 5573 5562 5551 5538 5526 5514 5500 5486 5473 5461 5450 5440 5430 5422 5416 5410 5406 5402 5398 5394 5390 5385
5684 5683 5679 5679 5675 5671 5667 5662 5658 5653 5647 5641 5635 5629 5623 5617 5610 5603 5595 5587 5577 5567 5558 5547 5535 5523 5511 5497 5484 5472 5460 5448 5438 5430 5421 5415 5409 5404 5399 5396 5392 5388 5384 5380
5674 5671 5669 5667 5663 5659 5655 5650 5645 5641 5635 5629 5623 5616 5611 5604 5597 5588 5580 5572 5563 5553 5542 5532 5521 5508 5495 5482 5469 5457 5446 5437 5428 5420 5414 5408 5403 5398 5394 5390 5386 5383 5379 5375
5664 5661 5659 5656 5651 5648 5644 5638 5633 5628 5622 5616 5609 5603 5596 5589 5581 5574 5566 5557 5547 5538 5527 5516 5505 5492 5480 5467 5455 5445 5435 5427 5419 5412 5406 5401 5397 5392 5388 5384 5379 5375 5372 5369
5653 5649 5646 5642 5638 5635 5631 5626 5621 5615 5608 5602 5596 5590 5582 5575 5567 5559 5551 5542 5533 5522 5512 5501 5489 5476 5464 5452 5443 5433 5424 5417 5410 5404 5399 5394 5390 5386 5382 5378 5375 5371 5367 5364
5641 5637 5633 5629 5625 5621 5617 5613 5607 5599 5594 5588 5582 5575 5569 5562 5553 5545 5536 5528 5519 5509 5497 5485 5473 5461 5450 5440 5431 5422 5414 5408 5402 5396 5391 5387 5383 5379 5376 5373 5370 5366 5362 5358
5627 5624 5620 5616 5611 5607 5603 5598 5592 5585 5580 5574 5569 5562 5554 5547 5539 5530 5522 5512 5502 5491 5480 5470 5459 5447 5437 5428 5420 5412 5405 5399 5393 5389 5384 5381 5377 5374 5371 5368 5365 5362 5358 5353
5616 5612 5608 5603 5598 5592 5588 5583 5577 5571 5566 5560 5554 5547 5540 5533 5526 5517 5509 5497 5486 5476 5463 5454 5445 5435 5426 5417 5409 5402 5396 5390 5386 5382 5378 5375 5372 5369 5366 5363 5360 5356 5352 5347
5603 5598 5594 5589 5585 5579 5573 5568 5563 5557 5551 5546 5539 5532 5525 5519 5512 5503 5493 5482 5471 5464 5453 5442 5432 5423 5415 5406 5399 5393 5387 5383 5378 5375 5372 5369 5366 5363 5360 5357 5353 5349 5345 5341
5587 5583 5577 5572 5568 5565 5560 5555 5549 5544 5538 5531 5524 5518 5512 5502 5495 5486 5477 5468 5453 5448 5438 5429 5420 5411 5405 5398 5391 5384 5380 5376 5372 5368 5366 5363 5360 5356 5353 5349 5345 5341 5338 5334
5571 5567 5563 5559 5555 5551 5547 5540 5533 5528 5524 5517 5511 5502 5494 5485 5476 5468 5461 5454 5443 5432 5424 5416 5407 5401 5396 5390 5383 5377 5374 5370 5366 5363 5359 5356 5352 5348 5344 5341 5337 5333 5330 5326
5555 5552 5549 5545 5541 5536 5531 5527 5522 5515 5507 5499 5492 5485 5478 5471 5462 5454 5444 5436 5430 5421 5413 5404 5397 5391 5386 5381 5375 5371 5368 5364 5360 5356 5353 5349 5345 5341 5336 5332 5328 5325 5322 5318
5542 5539 5535 5531 5527 5521 5515 5509 5504 5498 5490 5483 5476 5468 5462 5456 5448 5440 5435 5424 5417 5409 5402 5393 5386 5381 5376 5372 5368 5364 5360 5357 5353 5348 5344 5340 5335 5331 5327 5324 5319 5316 5313 5310
5527 5523 5519 5514 5509 5504 5498 5491 5486 5480 5473 5467 5460 5452 5445 5439 5434 5423 5417 5411 5404 5397 5390 5382 5375 5370 5366 5362 5359 5355 5351 5347 5343 5338 5334 5330 5325 5321 5317 5313 5309 5305 5303 5300
5511 5505 5500 5496 5491 5487 5482 5476 5471 5464 5457 5451 5444 5436 5429 5423 5417 5412 5403 5396 5390 5383 5377 5370 5364 5358 5354 5351 5348 5345 5341 5337 5332 5328 5323 5319 5314 5309 5305 5300 5297 5294 5291 5290
5497 5492 5487 5481 5476 5471 5465 5458 5454 5448 5440 5435 5430 5421 5415 5407 5400 5395 5389 5382 5376 5369 5363 5357 5351 5347 5343 5339 5336 5333 5330 5326 5321 5317 5312 5307 5302 5297 5293 5289 5285 5282 5280 5278
5483 5478 5472 5466 5459 5453 5447 5441 5435 5432 5425 5417 5413 5407 5399 5392 5385 5379 5374 5368 5361 5355 5350 5344 5339 5335 5331 5328 5325 5322 5319 5315 5310 5306 5301 5296 5291 5286 5282 5278 5274 5271 5268 5266